Wetbulb
56.10 55.12 54.53 54.23 53.75 53.93 54.44 55.14 50.02 48.16 49.28 52.11 50.89 55.28 55.68 55.90 54.21 54.83 54.52 49.89 46.69 46.33 46.58 47.21 47.63 48.03 48.24 48.61 48.92 49.17 49.65 51.23 53.34 55.50 56.34 58.02 58.86 59.18
55.20 54.36 54.44 54.16 53.61 55.01 53.07 53.35 53.14 51.98 48.71 52.29 51.66 52.60 53.93 53.06 52.86 53.05 53.41 48.59 46.96 45.81 44.69 44.76 45.31 45.95 46.26 46.55 46.41 46.58 47.87 48.64 50.58 53.02 54.54 55.46 56.62 57.58
53.60 53.21 52.50 52.93 53.99 55.14 55.63 54.67 53.70 53.36 48.41 51.40 51.73 52.81 52.21 52.34 52.32 53.04 51.69 51.43 51.18 44.89 43.65 43.53 43.55 43.99 44.50 43.86 43.91 44.30 45.56 46.80 47.99 49.83 53.01 54.65 55.60 56.79
53.95 53.75 52.17 53.79 55.12 54.63 54.92 53.81 52.94 52.97 50.88 47.86 50.15 50.09 49.86 50.77 51.60 51.11 50.28 49.20 48.90 45.40 43.42 43.01 43.05 43.06 43.33 43.34 43.29 43.37 44.22 44.42 45.30 47.41 51.77 53.01 53.59 55.80
54.38 52.70 53.56 54.12 53.85 54.11 53.09 52.25 51.76 50.78 51.01 47.80 47.63 48.80 49.31 49.13 48.61 49.56 49.28 48.12 47.76 44.17 42.73 42.30 42.69 43.02 43.02 43.04 43.14 43.71 44.06 43.90 43.60 44.80 47.28 48.95 49.62 52.47
53.27 52.61 53.01 53.11 53.72 51.53 48.51 49.86 49.30 48.41 47.07 46.51 45.40 44.02 44.76 44.67 46.83 47.45 45.99 47.13 46.34 45.89 44.54 42.11 41.77 42.63 42.81 43.36 43.59 44.00 43.94 44.17 43.76 44.18 44.81 44.27 45.00 49.23
51.52 53.65 54.33 51.89 46.61 47.21 49.91 48.41 48.08 47.01 44.92 45.07 41.96 40.83 40.46 39.92 41.74 46.69 44.01 44.54 45.41 46.05 44.12 45.15 45.22 44.97 45.03 43.35 44.64 44.55 43.81 43.48 44.40 44.78 43.87 44.45 44.09 47.39
52.10 51.36 50.90 45.34 43.94 41.01 41.22 41.47 43.94 44.19 44.91 43.63 42.31 40.57 40.52 43.12 45.76 43.94 42.29 40.89 38.57 44.63 42.41 42.54 44.39 43.43 40.61 41.10 41.82 41.87 43.48 43.69 43.49 43.79 43.57 43.69 43.70 44.82
49.39 48.10 46.02 43.09 43.04 43.70 39.46 38.07 37.85 37.91 35.47 46.24 43.57 42.67 42.47 45.24 43.47 40.02 41.61 40.22 39.29 43.69 40.44 39.46 43.13 41.40 38.77 39.53 39.69 41.55 42.04 42.77 43.39 43.43 42.94 43.11 42.20 42.10
43.05 43.31 42.43 41.60 41.50 40.56 40.66 40.51 41.55 43.20 42.02 41.06 45.19 45.02 45.49 44.10 43.09 43.03 41.72 39.80 39.28 41.16 38.30 35.93 40.87 36.33 37.53 37.90 40.10 42.47 41.96 41.93 42.35 42.36 42.18 41.68 40.90 40.42
40.08 40.79 41.41 39.79 38.42 39.41 38.21 37.18 38.26 39.01 39.16 39.61 40.26 39.85 38.89 38.44 40.17 41.15 38.39 36.44 35.53 38.89 36.74 35.97 37.91 33.58 34.47 35.29 38.97 41.74 41.74 41.26 41.21 40.91 40.47 40.34 40.05 39.44
38.88 39.08 37.55 39.43 37.00 36.26 38.09 37.73 36.48 37.93 37.02 35.75 38.42 38.69 38.97 38.58 36.28 41.21 40.59 37.02 36.41 36.23 39.05 37.31 37.02 33.74 33.21 34.12 36.31 39.90 40.43 39.88 39.74 39.74 40.13 40.36 40.34 40.29
36.02 35.49 35.85 36.07 36.43 36.76 37.06 37.72 37.44 39.00 35.19 38.82 38.59 38.29 38.44 37.43 37.87 39.02 38.81 37.69 34.99 36.36 38.49 38.87 37.32 35.03 35.55 32.85 33.58 36.51 39.12 39.87 39.75 39.75 39.22 39.22 39.48 39.24
35.25 35.55 36.17 35.88 36.52 36.01 35.61 35.85 35.04 34.09 37.00 35.90 34.66 34.30 34.30 34.66 36.44 37.62 37.31 36.99 37.43 37.32 37.69 37.48 35.56 36.62 36.40 33.38 32.67 33.76 36.20 38.69 39.22 38.54 37.83 38.26 37.96 38.11
35.57 35.22 35.21 35.51 35.49 33.70 34.02 34.13 32.80 35.03 34.30 33.39 33.39 33.21 34.33 34.28 35.89 35.71 36.00 35.23 34.54 34.40 35.05 34.82 34.93 34.31 37.01 34.29 32.73 32.67 32.77 32.12 35.75 35.58 36.51 36.31 36.11 37.61
33.20 33.74 33.38 32.20 32.37 33.12 32.83 33.56 34.84 34.84 34.44 34.60 33.85 33.60 33.54 33.72 34.66 35.03 33.32 33.32 32.77 32.08 34.16 35.15 35.66 36.08 35.46 35.72 34.67 32.32 33.35 31.33 32.97 34.11 34.35 35.32 36.91 39.21
32.64 32.31 32.31 32.49 32.85 33.21 33.39 34.48 35.39 33.83 33.48 33.89 32.77 32.29 32.52 32.75 33.65 34.36 33.63 33.11 31.93 31.29 31.28 32.52 33.02 34.15 34.61 35.99 32.65 33.06 32.40 32.11 32.61 33.09 34.02 33.24 35.50 37.14
32.31 32.49 32.67 32.67 33.03 33.21 33.39 34.12 33.58 32.56 33.11 32.93 32.58 32.62 32.32 32.72 32.78 33.15 33.30 32.79 32.52 32.24 31.64 32.16 31.96 32.22 33.85 33.51 34.99 32.56 33.42 32.39 32.41 33.57 35.85 32.68 32.14 34.90
32.31 33.03 32.67 32.67 32.67 33.03 33.58 33.58 33.39 32.83 32.31 32.59 32.55 32.76 33.21 33.76 32.67 31.92 32.25 32.79 33.03 32.43 33.18 34.52 33.80 32.58 30.97 29.27 32.35 32.99 32.64 32.58 31.98 32.58 36.46 36.47 32.86 32.89
33.21 33.03 32.67 32.85 32.85 33.21 34.12 33.76 33.03 32.31 32.12 32.12 32.29 32.65 32.85 33.39 32.49 31.96 32.46 33.36 32.61 32.50 32.37 34.69 35.26 35.08 33.92 32.93 32.10 32.19 33.65 32.72 32.75 31.72 31.77 32.60 31.76 29.89
34.48 34.12 33.58 34.48 33.39 34.12 33.94 33.03 32.67 32.67 32.49 32.12 32.12 32.31 32.49 33.58 32.49 32.80 32.74 32.78 32.71 33.01 31.86 32.62 34.62 32.91 34.21 34.36 31.51 30.98 32.12 32.25 34.38 33.73 32.43 32.35 30.37 30.37
34.66 34.48 34.30 34.66 34.30 34.12 33.39 32.67 32.67 32.49 32.49 32.31 32.12 32.31 32.31 33.03 32.67 32.49 32.67 32.47 33.45 33.36 33.26 32.73 33.85 34.52 35.01 34.80 32.54 30.86 31.59 32.09 31.82 31.43 31.01 31.84 32.91 30.28
34.84 34.65 34.30 34.66 34.84 33.94 34.12 33.39 33.21 32.67 33.21 32.85 32.31 32.31 32.31 32.12 33.03 33.21 33.58 33.84 33.66 32.88 32.39 32.10 33.23 34.72 33.54 33.90 32.41 32.38 30.84 30.94 31.94 32.01 31.85 30.30 30.33 30.72
MSLP
1011.11 1011.71 1012.16 1012.46 1013.19 1013.46 1013.96 1013.92 1013.72 1014.01 1014.24 1014.46 1014.72 1014.70 1014.85 1015.11 1015.22 1015.39 1015.56 1015.87 1016.26 1016.32 1016.55 1016.55 1016.75 1016.55 1016.26 1016.12 1015.46 1015.11 1014.93 1014.46 1014.26 1013.65 1013.52 1013.00 1013.60 1013.89
1010.84 1011.39 1011.89 1012.36 1012.64 1012.98 1013.30 1013.03 1013.21 1013.18 1013.40 1013.67 1014.24 1014.36 1014.51 1014.72 1014.95 1015.12 1015.37 1015.74 1016.01 1016.22 1016.44 1016.33 1016.13 1015.99 1015.79 1015.60 1015.01 1014.72 1014.31 1013.75 1013.65 1013.81 1013.24 1013.47 1013.26 1013.61
1010.22 1010.57 1010.95 1011.21 1011.76 1012.14 1012.29 1012.39 1012.55 1013.01 1013.42 1013.58 1014.24 1014.44 1014.55 1014.68 1014.85 1015.07 1015.25 1015.18 1015.28 1015.66 1015.77 1015.70 1015.39 1015.11 1015.02 1014.91 1014.00 1014.19 1013.73 1013.09 1012.80 1012.92 1012.82 1012.73 1012.91 1012.88
1009.12 1009.75 1010.08 1010.44 1010.78 1011.06 1011.41 1011.36 1011.95 1012.57 1013.00 1013.20 1013.81 1014.06 1014.22 1014.53 1014.64 1014.84 1014.92 1015.03 1014.97 1015.03 1015.35 1014.93 1014.71 1014.32 1014.08 1013.37 1012.81 1013.35 1012.99 1012.43 1012.05 1011.75 1011.24 1011.06 1011.30 1011.32
1007.99 1008.49 1008.73 1009.40 1009.87 1010.12 1010.44 1010.84 1011.40 1012.02 1012.53 1012.56 1012.99 1013.54 1013.79 1014.26 1014.47 1014.66 1014.67 1014.62 1014.31 1014.45 1014.42 1014.24 1013.97 1013.79 1013.47 1012.26 1011.56 1012.33 1012.17 1011.75 1011.24 1010.83 1010.22 1010.29 1010.57 1010.35
1007.20 1007.66 1008.11 1008.24 1008.56 1009.50 1009.91 1010.32 1010.98 1011.67 1012.24 1012.23 1012.65 1013.32 1013.88 1014.36 1014.24 1013.78 1013.83 1013.76 1013.39 1013.46 1013.80 1013.84 1013.50 1013.15 1012.91 1011.20 1010.59 1011.25 1011.20 1011.03 1010.31 1009.82 1009.91 1010.13 1009.47 1008.54
1006.45 1006.86 1007.02 1007.39 1007.87 1008.31 1008.98 1009.83 1010.92 1011.49 1011.84 1011.80 1012.57 1013.01 1013.25 1013.74 1013.54 1013.14 1013.28 1013.19 1013.16 1013.17 1013.25 1012.70 1012.77 1012.30 1012.21 1010.74 1010.11 1010.34 1010.30 1010.11 1009.65 1009.34 1009.63 1009.74 1009.85 1008.13
1005.48 1005.79 1006.23 1007.17 1007.91 1008.70 1009.24 1010.24 1010.99 1011.06 1011.54 1011.79 1012.34 1012.66 1012.79 1012.59 1012.77 1012.83 1012.91 1013.02 1013.05 1013.18 1013.17 1012.62 1012.26 1012.07 1012.29 1010.83 1010.18 1010.24 1009.84 1009.82 1009.30 1009.24 1009.69 1010.27 1009.97 1010.36
1005.15 1005.72 1007.15 1007.65 1008.21 1008.75 1009.84 1010.42 1010.93 1011.29 1011.55 1011.90 1011.97 1012.30 1012.29 1012.31 1012.32 1012.41 1012.52 1012.66 1012.61 1012.82 1013.45 1012.61 1012.35 1012.26 1011.97 1010.76 1010.04 1009.74 1009.56 1009.75 1009.69 1009.66 1009.98 1011.09 1011.30 1012.05
1006.10 1007.34 1006.22 1007.67 1008.85 1009.89 1010.35 1010.88 1011.27 1010.91 1010.96 1011.35 1011.00 1011.20 1011.84 1012.30 1012.08 1011.90 1012.02 1012.91 1013.12 1013.06 1013.71 1012.88 1012.62 1012.87 1012.18 1010.85 1009.89 1009.37 1009.76 1009.89 1010.25 1010.79 1010.61 1011.85 1012.61 1013.79
1006.66 1007.01 1008.23 1008.07 1009.41 1009.40 1010.18 1010.49 1011.00 1011.10 1011.15 1011.32 1011.61 1011.23 1011.63 1011.91 1011.95 1012.16 1012.60 1012.79 1012.89 1012.90 1013.56 1013.06 1012.66 1012.97 1012.66 1011.71 1010.52 1009.81 1010.03 1010.33 1011.08 1010.87 1011.90 1013.02 1013.94 1015.33
1006.95 1007.80 1008.78 1008.54 1009.17 1009.87 1010.59 1010.40 1010.90 1010.94 1011.00 1011.45 1011.61 1011.82 1011.66 1011.59 1011.66 1011.67 1011.91 1012.25 1012.72 1012.95 1013.31 1012.94 1012.71 1013.18 1013.07 1012.75 1011.82 1011.16 1011.42 1011.19 1011.41 1011.57 1013.03 1013.89 1015.24 1016.75
1007.59 1008.21 1008.55 1009.06 1009.29 1009.72 1010.14 1010.29 1010.47 1010.64 1010.66 1011.04 1011.40 1011.62 1011.50 1011.44 1011.46 1011.81 1011.85 1012.08 1012.57 1012.63 1012.99 1012.99 1013.03 1013.22 1013.44 1013.47 1013.15 1012.86 1012.93 1012.67 1012.46 1013.05 1014.17 1015.14 1016.57 1017.50
1008.65 1008.67 1009.01 1008.98 1009.25 1009.02 1009.64 1010.05 1010.20 1010.43 1010.54 1010.88 1011.13 1011.51 1011.01 1011.37 1011.56 1011.77 1012.07 1012.22 1012.37 1012.66 1012.83 1012.97 1013.07 1013.16 1013.33 1013.71 1013.93 1014.01 1013.78 1013.95 1014.05 1015.07 1016.03 1017.28 1018.35 1019.39
1008.75 1009.04 1009.10 1009.21 1009.48 1009.23 1009.19 1009.80 1009.99 1010.11 1010.34 1010.68 1010.79 1010.54 1010.41 1010.96 1011.56 1011.57 1012.23 1012.37 1012.62 1012.68 1012.98 1013.21 1013.08 1013.26 1013.45 1013.66 1014.17 1014.84 1015.16 1016.04 1016.09 1016.66 1017.63 1018.39 1019.40 1020.34
1008.94 1009.02 1009.32 1009.53 1009.40 1009.37 1009.46 1009.54 1009.72 1010.06 1009.95 1010.12 1010.47 1010.05 1010.38 1010.37 1011.41 1011.71 1012.15 1012.67 1012.82 1013.00 1013.08 1013.13 1012.96 1013.21 1013.69 1014.08 1014.31 1015.04 1015.70 1016.31 1017.17 1017.63 1018.44 1019.40 1020.32 1021.08
1009.26 1009.43 1009.37 1009.26 1009.19 1009.21 1009.55 1009.15 1009.37 1009.72 1009.68 1009.87 1009.87 1010.41 1010.29 1009.91 1011.19 1011.51 1011.97 1012.22 1012.69 1013.31 1013.30 1013.33 1013.33 1013.55 1014.04 1014.29 1014.94 1015.47 1015.99 1016.90 1017.80 1018.11 1018.74 1020.16 1021.35 1022.08
1009.14 1009.13 1008.99 1009.00 1009.07 1008.93 1009.05 1008.86 1009.13 1009.50 1009.32 1009.37 1009.26 1010.18 1010.31 1009.97 1010.74 1011.28 1011.92 1012.14 1012.65 1012.93 1013.30 1013.17 1013.49 1014.01 1014.50 1015.23 1015.52 1015.73 1016.53 1017.16 1018.05 1018.49 1019.20 1020.27 1021.94 1022.82
1008.92 1008.82 1008.86 1008.92 1008.83 1008.71 1008.77 1008.89 1008.98 1008.99 1008.90 1008.99 1009.08 1009.83 1010.19 1010.00 1010.47 1011.16 1011.84 1012.05 1012.48 1012.88 1013.12 1013.08 1013.34 1013.63 1014.14 1014.95 1016.30 1016.48 1016.56 1017.50 1018.16 1018.98 1019.48 1020.19 1021.56 1022.66
1008.82 1008.74 1008.68 1008.73 1008.60 1008.61 1008.61 1008.84 1008.70 1008.49 1008.75 1008.84 1009.08 1009.53 1009.86 1009.90 1010.42 1011.10 1011.57 1011.90 1012.28 1012.64 1012.95 1013.21 1013.37 1013.52 1013.75 1014.34 1015.68 1017.13 1017.26 1017.39 1017.92 1019.06 1020.07 1021.26 1022.50 1023.45
1008.48 1008.49 1008.44 1008.45 1008.42 1008.43 1008.47 1008.41 1008.24 1008.46 1008.55 1008.73 1009.01 1009.24 1009.53 1009.89 1010.55 1010.91 1011.34 1011.86 1012.20 1012.27 1012.65 1013.14 1013.54 1013.91 1014.41 1014.96 1015.98 1017.22 1018.10 1018.27 1018.26 1018.50 1019.89 1020.92 1022.15 1023.22
1008.27 1008.21 1008.25 1008.19 1008.24 1008.28 1008.24 1008.22 1008.25 1008.50 1008.56 1008.57 1008.85 1009.08 1009.40 1009.91 1010.36 1010.72 1011.25 1011.76 1011.98 1012.16 1012.61 1013.37 1013.98 1014.36 1014.63 1014.89 1015.73 1016.79 1017.95 1018.77 1019.28 1019.64 1020.20 1020.28 1020.91 1021.87
1008.03 1008.06 1008.15 1008.17 1008.23 1008.23 1008.25 1008.24 1008.32 1008.38 1008.44 1008.48 1008.63 1008.92 1009.33 1009.77 1010.18 1010.64 1011.11 1011.55 1011.84 1012.18 1012.67 1013.33 1013.94 1014.40 1014.78 1015.10 1015.74 1016.73 1017.74 1018.63 1019.48 1020.27 1021.12 1021.46 1021.41 1021.57
Wind_Speed
11 12 9 7 7 7 7 10 6 8 8 7 6 8 7 6 5 5 7 5 9 8 7 8 11 14 14 15 16 16 18 19 18 14 20 18 21 21
7 10 10 7 9 9 8 7 7 7 5 4 7 6 6 5 5 7 7 4 7 5 6 9 11 14 15 17 16 17 19 21 20 15 16 17 19 20
10 12 13 13 10 9 8 8 8 6 7 7 6 6 6 8 7 6 5 5 4 6 8 10 11 12 13 14 14 17 19 20 21 18 18 17 23 27
15 14 14 10 14 11 10 11 8 9 7 10 7 5 7 6 7 7 5 4 4 3 9 12 13 14 14 12 11 17 17 20 19 18 17 13 18 23
16 17 17 15 14 12 11 9 8 5 9 6 6 4 5 5 7 7 7 6 4 5 10 11 11 13 15 13 12 16 16 19 19 20 14 15 13 23
14 13 13 17 17 14 8 10 8 8 7 7 5 5 6 3 7 7 6 4 5 5 4 8 11 11 16 12 11 16 17 18 19 17 12 5 9 20
13 16 17 17 16 13 9 9 10 9 6 6 5 4 4 4 6 5 4 3 4 2 6 7 8 9 10 9 9 13 15 13 13 13 10 13 2 25
16 15 14 12 10 9 7 5 7 7 9 5 4 5 7 5 5 4 3 1 3 2 6 8 5 8 7 7 11 14 13 9 8 13 19 19 20 26
10 8 4 6 7 7 5 4 3 3 4 7 8 7 7 7 5 5 5 4 3 2 5 6 5 7 6 8 15 12 9 10 14 22 29 27 26 29
9 3 8 9 7 5 4 2 3 5 7 6 10 8 7 6 6 4 4 2 2 1 2 3 3 3 7 7 17 6 12 15 20 25 32 30 35 34
7 7 5 7 6 9 6 7 5 4 2 7 8 5 8 8 6 5 3 3 2 2 3 2 1 2 4 7 9 6 18 25 25 31 32 31 33 34
7 7 6 5 4 6 5 6 6 5 4 2 2 5 8 8 9 6 5 4 2 1 3 3 1 2 3 4 8 6 6 26 30 36 35 36 31 15
4 3 4 4 7 7 7 5 6 4 4 5 5 5 5 4 4 4 4 3 3 4 2 2 1 2 2 1 5 6 6 11 15 19 29 30 27 21
2 2 3 9 11 10 7 8 9 5 3 4 4 4 4 3 3 3 3 2 2 2 3 3 1 2 2 2 3 4 8 7 12 12 13 20 24 21
2 3 6 8 8 5 7 8 5 4 5 4 5 4 4 4 4 4 2 3 3 2 3 2 2 3 4 3 5 2 7 5 9 12 11 12 12 12
3 2 2 4 4 4 3 5 3 4 5 5 4 4 4 6 3 3 3 2 2 2 3 2 3 4 4 6 7 7 9 5 5 10 10 10 9 9
2 1 2 3 2 3 3 3 3 4 5 4 4 4 5 6 3 4 3 3 2 2 3 3 7 8 6 6 8 7 9 10 7 12 13 11 9 9
2 2 3 3 3 2 3 2 2 4 4 4 5 5 6 7 6 4 3 3 4 5 4 5 7 7 6 8 11 8 8 10 8 9 12 12 9 8
2 2 2 3 3 3 3 3 3 3 3 4 5 6 6 6 7 6 5 4 5 6 6 5 5 6 6 6 3 11 9 9 9 7 10 9 8 8
2 3 3 3 2 2 2 3 3 3 3 4 5 6 6 7 7 6 6 6 7 7 7 4 4 6 8 6 5 3 5 10 11 9 10 10 10 16
3 3 3 3 2 2 2 1 1 2 3 4 4 5 6 6 6 6 6 7 8 7 8 6 4 8 8 8 7 6 4 9 5 11 12 9 8 6
2 2 2 2 2 2 1 1 1 2 3 4 4 5 5 6 6 7 7 7 7 7 7 7 7 6 3 4 9 10 7 6 12 15 14 6 7 9
3 2 2 1 1 2 2 2 2 2 3 3 4 4 5 6 6 6 6 7 7 7 9 8 6 3 5 6 10 9 11 11 8 9 7 12 13 14
Wind_Direction
190 183 187 184 190 191 204 206 185 191 207 208 216 210 215 221 223 245 251 221 238 244 257 274 290 294 295 294 293 295 296 291 287 297 305 269 240 244
186 182 191 198 195 197 198 189 201 214 225 220 219 203 214 222 221 238 248 232 228 250 284 285 278 284 293 289 296 295 291 291 292 279 259 266 271 252
187 189 196 189 204 199 195 199 200 203 221 234 235 219 217 229 247 233 222 236 229 230 277 280 275 271 268 281 296 288 286 289 290 289 267 247 265 249
189 195 200 194 206 193 200 196 204 197 209 235 209 201 216 250 247 231 219 210 252 263 291 286 286 284 277 267 284 283 276 284 282 281 248 245 288 265
195 195 199 193 199 198 198 198 197 190 214 207 221 216 218 223 226 228 225 232 238 265 271 274 281 289 280 278 284 269 262 274 276 262 245 240 278 245
196 197 199 196 197 195 186 193 191 202 206 209 207 207 218 185 228 224 223 226 285 308 310 276 280 303 289 297 282 270 260 271 266 255 227 228 347 185
191 202 201 201 188 182 182 183 197 212 204 202 203 187 174 186 208 188 229 280 306 314 307 313 320 321 310 309 298 266 261 265 240 207 167 107 117 107
202 203 197 161 149 141 139 147 192 185 215 209 198 222 220 206 195 192 205 193 307 131 323 314 329 321 307 315 315 297 268 213 151 145 130 110 110 106
210 185 118 53 98 124 131 170 224 278 279 256 233 224 231 217 181 173 193 195 226 337 312 303 338 321 317 321 317 291 217 169 132 124 124 119 99 97
116 84 112 136 127 112 124 149 232 213 213 224 232 216 231 198 193 181 162 124 278 253 251 267 352 313 317 336 329 205 156 132 126 126 114 115 110 105
76 91 104 104 123 140 156 181 216 237 262 237 239 199 181 166 167 152 158 168 238 224 202 228 39 311 320 340 343 151 148 133 133 117 112 110 108 109
110 98 83 96 149 189 204 185 202 223 180 189 181 192 178 172 170 195 174 179 171 257 197 230 128 27 337 342 4 45 99 129 127 120 119 115 113 113
78 80 115 174 179 183 191 193 211 181 196 200 202 195 181 162 161 184 177 165 166 226 163 216 174 103 29 29 5 23 107 116 106 99 108 108 114 117
150 171 212 206 211 192 192 212 212 203 190 194 184 195 159 154 156 159 178 187 194 231 154 195 171 173 131 73 80 31 53 76 100 106 103 103 105 111
172 201 203 220 232 229 214 214 200 192 187 193 200 185 156 142 142 122 114 110 92 97 153 173 172 160 181 131 131 112 110 39 102 111 115 116 119 125
143 156 229 252 243 251 235 219 204 212 200 199 200 143 140 136 146 146 122 150 102 93 69 148 136 135 127 128 139 125 131 122 121 113 111 104 111 122
114 209 216 214 218 208 223 205 207 202 193 179 157 163 163 136 151 151 131 139 142 165 133 85 78 81 69 116 129 125 124 118 130 128 117 109 107 126
193 222 227 228 241 221 230 206 206 211 197 175 149 167 171 152 148 135 137 166 167 156 150 130 125 111 104 59 43 123 126 128 129 126 126 119 118 134
233 230 238 235 232 218 216 207 212 206 169 170 157 167 169 150 146 147 162 170 164 163 154 140 141 142 135 118 83 30 136 138 125 116 131 127 129 133
233 244 236 239 240 233 218 217 203 163 179 163 161 163 163 152 148 159 164 170 169 159 149 141 154 162 146 140 128 91 98 140 140 122 109 92 87 90
232 238 239 252 253 228 221 225 159 189 170 165 166 162 158 153 162 160 153 167 166 160 156 154 114 96 111 104 114 118 88 63 104 137 136 122 125 126
256 240 233 249 248 251 236 192 170 188 174 166 164 160 157 163 165 160 160 165 173 161 144 119 129 128 115 138 139 130 124 102 81 77 60 76 155 156
237 229 222 238 244 220 218 209 201 187 182 166 156 158 160 167 161 168 165 168 161 154 150 142 137 127 128 144 141 140 133 132 136 125 91 69 64 85